Showing default

OPS 1509 (TRANSIT 10), 1864

Orbit data source: Space-Track

OPS 1509 (TRANSIT 10), 1864 is a payload satellite owned by USN BuWeps (US) in LEO that was launched on Wed, 22 Dec 1965 UTC via an SCOUT A launch vehicle from the Air Force Western Test Range (AFWTR). Payload-class satellites include a variety of spacecraft equipped with specific instruments for various scientific and technological missions. These include communications satellites like Starlink; space stations such as the ISS; scientific satellites like the Hubble; Earth observation satellites from companies like Planet Labs, Umbra, and HawkEye 360; GPS; miniature CubeSats for education and research; and military/defense satellites.

Loading next visibility...
Identifier
1864, 1965-109A
Orbit
LEO
Country
Flag of USUS
Related business
Manufacturer
APL
Mission
Spacecraft
Bus & Motor
TRANSIT 5, Unknown motor
Mass
51 kg wet, 51 kg dry
Launch date (UTC)
1965-12-22 (60 years ago)
Launch vehicle
SCOUT A
Launch site
Air Force Western Test Range (AFWTR)
Object type
Payload
Rocket body
Debris
Shape & HBR
Unknown
Radar Cross Section
Large (>1 m²)

Expand to show TLE details & history
Last TLE update: 11 hours ago

TLE from 11 hours ago
0 OPS 1509 (TRANSIT 10)
1  1864U 65109A   26062.56530848  .00000236  00000-0  20898-3 0  9996
2  1864  89.0622 245.7359 0109975 173.8964 186.3573 13.79029570 21540
Epoch: 2026-03-03T13:34Z
TLE epoch observation values (Epoch: 2026-03-03T13:34:02.652Z)
Latitude
-0.00009°
Longitude
-119.11769°
Altitude
1,050.638 km
Speed
7.286 km/s
True Right ascension
16h 22m 56s
True Declination
0° 00' 00"
Sunlit
Object was in daylight at epoch
Visualization orbit readout
Latitude
Unknown
Longitude
Unknown
Altitude
Unknown
Speed
Unknown
Apparent Right ascension
Unknown
Apparent Declination
Unknown
Sunlit
N/A
Visualization observer readout
Local Sidereal Time
04:47:40
Azimuth
Unknown
Elevation
Unknown
Doppler factor
Unknown
Orbital elements
Apogee altitude
1,045.089 km
Perigee altitude
883.591 km
Semi-major axis
7,342.477 km
Eccentricity
0.011
Inclination
89.0622°
RAAN
245.7359°
Arg. of periapsis
173.8964°
True anomaly
186.21964°
Mean anomaly
186.3573°
Eccentric anomaly
186.28828°
Mean motion
3.44968 °/min
Orbital period
104.36 mins
BSTAR
0.00020898
Loading maneuver chart data...
Computing Atmospheric mass density...
Loading historical data...
Loading historical data...
Loading historical data...
Loading historical data...
Loading historical data...
Loading historical data...
Loading historical data...

Documentation

Showing up to 5 results
|